Date String (YYYY-MM-DD hh:mm:ss) UTC,Instrument flags,absolute air pressure of the measurement (hPa),sample flow rate (lpm),inlet stack bypass flow (lpm),air temperature of the measurement (°C),ambient temperature measured by the external sensor (°C),aerosol sample conditioner tube jacket temperature (°C),OPC LED temperature (°C),internal box temperature (°C),relative humidity of the measurement (%),span deviation,mass concentration of particles derived from Lorenz-Mie calculation of OPC scattering (μg/m³),mass concentration of particles derived from Lorenz-Mie calculation of OPC scattering (μg/m³),mass concentration of particles derived from Lorenz-Mie calculation of OPC scattering (μg/m³)
DateTimeUTC,F1_M11,P_M11,Q1_M11,Q2_M11,T1_M11,T2_M11,T3_M11,T4_M11,T5_M11,U1_M11,ZSPAN_M11,X0_M11,X2_M11,X1_M11
2024-03-12 15:00:00,SystemResetWarning,0824.4,4.99,000.00,020.0,019.4,000.0,028.3,021.7,14.5,0000.0,0007.08,0002.68,0001.28
2024-03-12 15:01:00,SystemResetWarning,0824.4,5.00,000.00,020.0,019.4,000.0,028.3,021.7,14.4,0000.0,0007.19,0002.72,0001.27
2024-03-12 15:02:00,SystemResetWarning,0824.4,5.01,000.00,020.0,019.4,000.0,028.3,021.7,14.3,0000.0,0007.12,0002.74,0001.27
2024-03-12 15:03:00,SystemResetWarning,0824.4,5.01,000.00,020.0,019.4,000.0,028.3,021.8,14.3,0000.0,0007.22,0002.76,0001.27
2024-03-12 15:04:00,SystemResetWarning,0824.4,5.00,000.00,020.0,019.5,000.0,028.3,021.8,14.1,0000.0,0007.38,0002.81,0001.27
2024-03-12 15:05:00,SystemResetWarning,0824.4,4.99,000.00,020.0,019.5,000.0,028.3,021.8,14.3,0000.0,0007.41,0002.80,0001.26
2024-03-12 15:06:00,SystemResetWarning,0824.4,5.00,000.00,020.0,019.5,000.0,028.3,021.8,14.2,0000.0,0007.45,0002.80,0001.26
2024-03-12 15:07:00,SystemResetWarning,0824.4,5.01,000.00,020.0,019.5,000.0,028.3,021.8,14.4,0000.0,0007.34,0002.81,0001.26
2024-03-12 15:08:00,SystemResetWarning,0824.4,5.01,000.00,020.0,019.5,000.0,028.3,021.8,14.4,0000.0,0007.66,0002.89,0001.26
2024-03-12 15:09:00,SystemResetWarning,0824.4,5.00,000.00,020.0,019.5,000.0,028.4,021.8,14.1,0000.0,0007.72,0002.97,0001.26
2024-03-12 15:10:00,SystemResetWarning,0824.4,4.99,000.00,020.0,019.5,000.0,028.4,021.8,14.2,0000.0,0007.65,0002.94,0001.26
2024-03-12 15:11:00,SystemResetWarning,0824.4,4.99,000.00,020.1,019.5,000.0,028.4,021.8,14.5,0000.0,0009.35,0002.94,0001.27
2024-03-12 15:12:00,SystemResetWarning,0824.5,5.00,000.00,020.1,019.5,000.0,028.4,021.8,14.2,0000.0,0009.38,0002.86,0001.29
2024-03-12 15:13:00,SystemResetWarning,0824.5,5.01,000.00,020.1,019.6,000.0,028.4,021.9,13.9,0000.0,0009.41,0002.89,0001.29
2024-03-12 15:14:00,SystemResetWarning,0824.4,5.00,000.00,020.1,019.6,000.0,028.4,021.9,13.9,0000.0,0009.46,0002.93,0001.30
2024-03-12 15:15:00,SystemResetWarning,0824.4,5.01,000.00,020.1,019.6,000.0,028.4,021.9,14.4,0000.0,0009.43,0002.91,0001.31
2024-03-12 15:16:00,SystemResetWarning,0824.4,5.00,000.00,020.1,019.6,000.0,028.4,021.8,14.3,0000.0,0009.25,0002.84,0001.33
2024-03-12 15:17:00,SystemResetWarning,0824.4,5.00,000.00,020.1,019.6,000.0,028.4,021.8,14.1,0000.0,0009.46,0002.86,0001.34
2024-03-12 15:18:00,SystemResetWarning,0824.4,4.99,000.00,020.1,019.5,000.0,028.4,021.8,14.0,0000.0,0009.60,0002.83,0001.34
2024-03-12 15:19:00,SystemResetWarning,0824.4,4.99,000.00,020.1,019.5,000.0,028.4,021.9,14.1,0000.0,0009.17,0002.77,0001.32
2024-03-12 15:20:00,SystemResetWarning,0824.5,5.00,000.00,020.1,019.5,000.0,028.4,021.9,13.9,0000.0,0009.65,0002.68,0001.31
2024-03-12 15:21:00,SystemResetWarning,0824.3,5.01,000.00,020.1,019.5,000.0,028.5,021.8,14.0,0000.0,0009.87,0002.69,0001.30
2024-03-12 15:22:00,SystemResetWarning,0824.4,5.01,000.00,020.1,019.5,000.0,028.5,021.8,14.3,0000.0,0008.38,0002.67,0001.29
2024-03-12 15:23:00,SystemResetWarning,0824.7,5.01,000.00,020.1,019.5,000.0,028.5,021.8,14.6,0000.0,0007.99,0002.70,0001.29
2024-03-12 15:24:00,SystemResetWarning,0824.7,4.99,000.00,020.1,019.5,000.0,028.5,021.9,14.7,0000.0,0007.98,0002.67,0001.28
2024-03-12 15:25:00,SystemResetWarning,0824.7,4.99,000.00,020.1,019.6,000.0,028.5,021.9,14.8,0000.0,0007.94,0002.65,0001.28
2024-03-12 15:26:00,SystemResetWarning,0824.7,5.01,000.00,020.2,019.6,000.0,028.5,021.9,14.5,0000.0,0008.15,0002.68,0001.27
2024-03-12 15:27:00,SystemResetWarning,0824.6,5.00,000.00,020.2,019.6,000.0,028.5,021.9,13.7,0000.0,0009.11,0002.71,0001.26
2024-03-12 15:28:00,SystemResetWarning,0824.5,5.00,000.00,020.2,019.6,000.0,028.5,021.9,13.1,0000.0,0009.16,0002.69,0001.25
2024-03-12 15:29:00,SystemResetWarning,0824.5,5.01,000.00,020.2,019.6,000.0,028.5,021.9,12.8,0000.0,0008.94,0002.77,0001.26
2024-03-12 15:30:00,SystemResetWarning,0824.6,5.00,000.00,020.2,019.6,000.0,028.5,021.9,13.1,0000.0,0009.03,0002.78,0001.27
2024-03-12 15:31:00,SystemResetWarning,0824.6,5.00,000.00,020.2,019.6,000.0,028.5,021.9,13.2,0000.0,0008.16,0002.69,0001.27
2024-03-12 15:32:00,SystemResetWarning,0824.7,5.00,000.00,020.2,019.6,000.0,028.5,021.9,13.4,0000.0,0007.77,0002.65,0001.28
2024-03-12 15:33:00,SystemResetWarning,0824.7,5.00,000.00,020.2,019.6,000.0,028.5,021.9,14.0,0000.0,0007.78,0002.66,0001.26
2024-03-12 15:34:00,SystemResetWarning,0824.7,5.00,000.00,020.2,019.6,000.0,028.5,021.9,14.6,0000.0,0007.86,0002.62,0001.25
2024-03-12 15:35:00,SystemResetWarning,0824.7,5.00,000.00,020.2,019.6,000.0,028.5,021.9,15.9,0000.0,0007.85,0002.56,0001.25
2024-03-12 15:36:00,SystemResetWarning,0824.7,5.00,000.00,020.2,019.6,000.0,028.5,021.9,16.4,0000.0,0008.06,0002.62,0001.25
2024-03-12 15:37:00,SystemResetWarning,0824.8,5.00,000.00,020.2,019.6,000.0,028.5,021.9,15.5,0000.0,0008.11,0002.64,0001.25
2024-03-12 15:38:00,SystemResetWarning,0824.7,5.00,000.00,020.2,019.6,000.0,028.5,022.0,15.7,0000.0,0007.25,0002.66,0001.27
2024-03-12 15:39:00,SystemResetWarning,0824.8,4.99,000.00,020.2,019.7,000.0,028.5,022.0,16.4,0000.0,0006.84,0002.64,0001.28
2024-03-12 15:40:00,SystemResetWarning,0824.7,5.01,000.00,020.2,019.7,000.0,028.5,022.0,16.1,0000.0,0006.84,0002.56,0001.28
2024-03-12 15:41:00,SystemResetWarning,0824.7,5.01,000.00,020.2,019.7,000.0,028.5,022.0,15.9,0000.0,0006.87,0002.53,0001.28
2024-03-12 15:42:00,SystemResetWarning,0824.7,5.00,000.00,020.3,019.7,000.0,028.6,022.0,15.8,0000.0,0007.89,0002.56,0001.26
2024-03-12 15:43:00,SystemResetWarning,0824.7,4.99,000.00,020.3,019.8,000.0,028.6,022.0,15.3,0000.0,0008.24,0002.65,0001.27
2024-03-12 15:44:00,SystemResetWarning,0824.7,5.00,000.00,020.3,019.8,000.0,028.6,022.1,15.0,0000.0,0008.72,0002.68,0001.28
2024-03-12 15:45:00,SystemResetWarning,0824.7,5.00,000.00,020.3,019.8,000.0,028.6,022.1,14.8,0000.0,0008.69,0002.74,0001.30
2024-03-12 15:46:00,SystemResetWarning,0824.6,5.00,000.00,020.3,019.8,000.0,028.6,022.0,13.9,0000.0,0008.68,0002.82,0001.31
2024-03-12 15:47:00,SystemResetWarning,0824.6,5.00,000.00,020.3,019.8,000.0,028.6,022.0,13.6,0000.0,0008.52,0002.74,0001.31
2024-03-12 15:48:00,SystemResetWarning,0824.5,5.00,000.00,020.3,019.8,000.0,028.6,022.1,13.5,0000.0,0008.25,0002.67,0001.31
2024-03-12 15:49:00,SystemResetWarning,0824.5,5.00,000.00,020.3,019.7,000.0,028.6,022.0,13.5,0000.0,0008.12,0002.68,0001.30
2024-03-12 15:50:00,SystemResetWarning,0824.4,5.00,000.00,020.3,019.7,000.0,028.6,022.0,13.6,0000.0,0008.16,0002.77,0001.29
2024-03-12 15:51:00,SystemResetWarning,0824.6,5.00,000.00,020.3,019.7,000.0,028.6,022.0,13.3,0000.0,0008.32,0002.88,0001.30
2024-03-12 15:52:00,SystemResetWarning,0824.6,5.00,000.00,020.3,019.6,000.0,028.6,022.0,13.5,0000.0,0008.43,0002.90,0001.30
2024-03-12 15:53:00,SystemResetWarning,0824.5,5.00,000.00,020.3,019.6,000.0,028.6,022.0,13.6,0000.0,0008.62,0002.97,0001.33
2024-03-12 15:54:00,SystemResetWarning,0824.5,5.00,000.00,020.3,019.6,000.0,028.6,021.9,13.4,0000.0,0008.75,0003.03,0001.35
2024-03-12 15:55:00,SystemResetWarning,0824.5,5.00,000.00,020.3,019.6,000.0,028.6,021.9,13.4,0000.0,0008.46,0002.96,0001.37
2024-03-12 15:56:00,SystemResetWarning,0824.5,5.00,000.00,020.3,019.5,000.0,028.6,021.9,13.4,0000.0,0009.24,0003.04,0001.38
2024-03-12 15:57:00,SystemResetWarning,0824.5,5.00,000.00,020.2,019.5,000.0,028.6,021.9,13.5,0000.0,0009.38,0003.07,0001.40
2024-03-12 15:58:00,SystemResetWarning,0824.6,5.00,000.00,020.2,019.5,000.0,028.6,021.9,13.4,0000.0,0009.36,0003.10,0001.42
2024-03-12 15:59:00,SystemResetWarning,0824.6,5.00,000.00,020.2,019.5,000.0,028.6,021.9,13.5,0000.0,0009.67,0003.16,0001.42
